Wisconsin Dells, Wisconsin, United States (53965)
Lat: 43.63N, Lon: 89.77W
Wx Zone: WIZ057
Local Info
Past Weather Observations for Monday, December 15, 2014

NOTE: This archive is for the closest National Weather Service station to Wisconsin Dells. Information may differ from the station used for current weather conditions.

Click here for Long-term Archive

Time Weather Temperature Dewpoint Humidity Pressure Winds Precip Visibility
23:50
Overcast
Fog
41°F / 5°C 41°F / 5°C 100% 29.65 in
(1004 mb)
Calm - 1/4SM
23:30
Overcast
Fog
41°F / 5°C 41°F / 5°C 100% 29.65 in
(1004 mb)
Calm - 1/2SM
23:10
Overcast
Fog And Mist
41°F / 5°C 41°F / 5°C 100% 29.65 in
(1004 mb)
Calm - 3/4SM
22:50
Overcast
Fog And Mist
41°F / 5°C 41°F / 5°C 100% 29.65 in
(1004 mb)
Calm 0.04 in
(1.02 mm)
1SM
22:30
Overcast
Drizzle
41°F / 5°C 41°F / 5°C 100% 29.68 in
(1005 mb)
Calm 0.04 in
(1.02 mm)
1 1/4SM
22:10
Overcast
Rain
43°F / 6°C 41°F / 5°C 93% 29.68 in
(1005 mb)
Calm 0.04 in
(1.02 mm)
2SM
21:50
Overcast
Rain
43°F / 6°C 41°F / 5°C 93% 29.68 in
(1005 mb)
E 4.6 mph
(E 7 kph)
0.06 in
(1.52 mm)
2SM
21:30
Overcast
Light Rain
43°F / 6°C 41°F / 5°C 93% 29.68 in
(1005 mb)
E 3.5 mph
(E 6 kph)
0.04 in
(1.02 mm)
1/2SM
21:10
Overcast
Light Rain
43°F / 6°C 41°F / 5°C 93% 29.68 in
(1005 mb)
Calm 0.03 in
(0.76 mm)
1 1/2SM
20:50
Overcast
Rain
43°F / 6°C 43°F / 6°C 100% 29.68 in
(1005 mb)
E 4.6 mph
(E 7 kph)
0.05 in
(1.27 mm)
1 1/2SM
20:30
Overcast
Light Rain
43°F / 6°C 41°F / 5°C 93% 29.68 in
(1005 mb)
E 4.6 mph
(E 7 kph)
0.02 in
(0.51 mm)
1 1/4SM
20:10
Overcast
Drizzle
43°F / 6°C 41°F / 5°C 93% 29.68 in
(1005 mb)
E 4.6 mph
(E 7 kph)
0.01 in
(0.25 mm)
1 1/4SM
19:50
Overcast
Drizzle
43°F / 6°C 41°F / 5°C 93% 29.68 in
(1005 mb)
E 4.6 mph
(E 7 kph)
- 1SM
19:30
Overcast
Drizzle
43°F / 6°C 41°F / 5°C 93% 29.68 in
(1005 mb)
E 4.6 mph
(E 7 kph)
- 1SM
19:10
Overcast
Drizzle
43°F / 6°C 41°F / 5°C 93% 29.68 in
(1005 mb)
E 5.8 mph
(E 9 kph)
- 1 1/4SM
18:50
Overcast
Drizzle
43°F / 6°C 41°F / 5°C 93% 29.71 in
(1006 mb)
E 5.8 mph
(E 9 kph)
0.02 in
(0.51 mm)
1SM
18:30
Overcast
Rain
43°F / 6°C 43°F / 6°C 100% 29.71 in
(1006 mb)
E 3.5 mph
(E 6 kph)
0.02 in
(0.51 mm)
2 1/2SM
18:10
Overcast
Light Rain
43°F / 6°C 43°F / 6°C 100% 29.71 in
(1006 mb)
Calm 0.01 in
(0.25 mm)
2SM
17:50
Overcast
Rain
43°F / 6°C 41°F / 5°C 93% 29.71 in
(1006 mb)
Calm 0.03 in
(0.76 mm)
2SM
17:30
Overcast
Light Rain
43°F / 6°C 43°F / 6°C 100% 29.71 in
(1006 mb)
Calm 0.01 in
(0.25 mm)
2SM
17:10
Overcast
Fog And Mist
43°F / 6°C 43°F / 6°C 100% 29.71 in
(1006 mb)
Calm - 4SM
16:50
Overcast
Fog And Mist
43°F / 6°C 43°F / 6°C 100% 29.71 in
(1006 mb)
E 3.5 mph
(E 6 kph)
0.01 in
(0.25 mm)
3SM
16:30
Overcast
Rain
43°F / 6°C 43°F / 6°C 100% 29.71 in
(1006 mb)
E 6.9 mph
(E 11 kph)
0.01 in
(0.25 mm)
2SM
16:10
Overcast
Rain
43°F / 6°C 43°F / 6°C 100% 29.71 in
(1006 mb)
E 5.8 mph
(E 9 kph)
0.01 in
(0.25 mm)
2 1/2SM
15:50
Overcast
Light Rain
43°F / 6°C 43°F / 6°C 100% 29.71 in
(1006 mb)
E 8.1 mph
(E 13 kph)
0.02 in
(0.51 mm)
4SM
15:30
Overcast
Drizzle
43°F / 6°C 43°F / 6°C 100% 29.71 in
(1006 mb)
ESE 5.8 mph
(ESE 9 kph)
0.02 in
(0.51 mm)
3SM
15:10
Overcast
Light Rain
43°F / 6°C 43°F / 6°C 100% 29.71 in
(1006 mb)
E 6.9 mph
(E 11 kph)
0.01 in
(0.25 mm)
2SM
14:50
Overcast
Light Rain
43°F / 6°C 43°F / 6°C 100% 29.71 in
(1006 mb)
E 3.5 mph
(E 6 kph)
0.02 in
(0.51 mm)
3SM
14:30
Overcast
Light Rain
45°F / 7°C 43°F / 6°C 93% 29.71 in
(1006 mb)
E 5.8 mph
(E 9 kph)
0.02 in
(0.51 mm)
3SM
14:10
Overcast
Light Rain
45°F / 7°C 43°F / 6°C 93% 29.71 in
(1006 mb)
SE 4.6 mph
(SE 7 kph)
0.01 in
(0.25 mm)
2 1/2SM
13:50
Overcast
Rain
45°F / 7°C 43°F / 6°C 93% 29.74 in
(1007 mb)
SE 4.6 mph
(SE 7 kph)
0.02 in
(0.51 mm)
2 1/2SM
13:30
Overcast
Light Rain
45°F / 7°C 43°F / 6°C 93% 29.74 in
(1007 mb)
SE 4.6 mph
(SE 7 kph)
0.01 in
(0.25 mm)
2SM
13:10
Overcast
Drizzle
45°F / 7°C 43°F / 6°C 93% 29.74 in
(1007 mb)
SSE 6.9 mph
(SSE 11 kph)
- 4SM
12:50
Overcast
Light Rain
45°F / 7°C 43°F / 6°C 93% 29.74 in
(1007 mb)
SE 5.8 mph
(SE 9 kph)
- 4SM
12:30
Overcast
Light Rain
45°F / 7°C 43°F / 6°C 93% 29.74 in
(1007 mb)
Calm - 4SM
12:10
Overcast
Rain
45°F / 7°C 43°F / 6°C 93% 29.77 in
(1008 mb)
Calm - 4SM
11:50
Overcast
Drizzle
45°F / 7°C 43°F / 6°C 93% 29.77 in
(1008 mb)
SSE 4.6 mph
(SSE 7 kph)
- 2 1/2SM
11:30
Overcast
Drizzle
45°F / 7°C 43°F / 6°C 93% 29.8 in
(1009 mb)
S 9.2 mph
(S 15 kph)
- 1 1/4SM
11:10
Overcast
Fog And Mist
45°F / 7°C 43°F / 6°C 93% 29.8 in
(1009 mb)
SSE 4.6 mph
(SSE 7 kph)
- 1 1/4SM
10:50
Overcast
Fog And Mist
45°F / 7°C 43°F / 6°C 93% 29.8 in
(1009 mb)
SSE 8.1 mph
(SSE 13 kph)
- 1 3/4SM
10:30
Overcast
Fog And Mist
45°F / 7°C 43°F / 6°C 93% 29.8 in
(1009 mb)
S 8.1 mph
(S 13 kph)
- 2SM
10:10
Overcast
Fog And Mist
45°F / 7°C 43°F / 6°C 93% 29.8 in
(1009 mb)
SSE 6.9 mph
(SSE 11 kph)
- 2SM
09:50
Overcast
Fog And Mist
45°F / 7°C 43°F / 6°C 93% 29.8 in
(1009 mb)
SSE 8.1 mph
(SSE 13 kph)
- 2SM
09:30
Overcast
Fog And Mist
45°F / 7°C 43°F / 6°C 93% 29.83 in
(1010 mb)
SSE 10.4 mph
(SSE 17 kph)
- 2SM
09:10
Overcast
Fog And Mist
43°F / 6°C 43°F / 6°C 100% 29.83 in
(1010 mb)
S 10.4 mph
(S 17 kph)
- 2SM
08:50
Overcast
Fog And Mist
43°F / 6°C 43°F / 6°C 100% 29.83 in
(1010 mb)
S 13.8 mph
(S 22 kph)
- 2SM
08:30
Overcast
Fog And Mist
43°F / 6°C 43°F / 6°C 100% 29.83 in
(1010 mb)
S 9.2 mph
(S 15 kph)
- 2 1/2SM
08:10
Overcast
Fog And Mist
43°F / 6°C 43°F / 6°C 100% 29.83 in
(1010 mb)
SSE 9.2 mph
(SSE 15 kph)
- 1 3/4SM
07:50
Overcast
Fog And Mist
43°F / 6°C 41°F / 5°C 93% 29.83 in
(1010 mb)
SSE 8.1 mph
(SSE 13 kph)
- 1SM
07:30
Overcast
Fog And Mist
43°F / 6°C 43°F / 6°C 100% 29.83 in
(1010 mb)
SSE 6.9 mph
(SSE 11 kph)
- 1SM
07:10
Overcast
Fog
43°F / 6°C 41°F / 5°C 93% 29.86 in
(1011 mb)
SSE 5.8 mph
(SSE 9 kph)
- 1/4SM
06:50
Overcast
Fog
43°F / 6°C 41°F / 5°C 93% 29.86 in
(1011 mb)
SSE 5.8 mph
(SSE 9 kph)
- 1/4SM
06:30
Overcast
Fog
43°F / 6°C 41°F / 5°C 93% 29.86 in
(1011 mb)
S 6.9 mph
(S 11 kph)
- 1/2SM
06:10
Overcast
Fog
43°F / 6°C 41°F / 5°C 93% 29.86 in
(1011 mb)
S 6.9 mph
(S 11 kph)
- 1/4SM
05:50
Overcast
Fog
43°F / 6°C 43°F / 6°C 100% 29.89 in
(1012 mb)
S 8.1 mph
(S 13 kph)
- 1/2SM
05:30
Overcast
Fog And Mist
43°F / 6°C 43°F / 6°C 100% 29.89 in
(1012 mb)
SSE 3.5 mph
(SSE 6 kph)
- 3/4SM
05:10
Overcast
Fog And Mist
43°F / 6°C 43°F / 6°C 100% 29.89 in
(1012 mb)
S 8.1 mph
(S 13 kph)
- 3/4SM
04:50
Overcast
Fog And Mist
43°F / 6°C 43°F / 6°C 100% 29.89 in
(1012 mb)
S 9.2 mph
(S 15 kph)
- 3/4SM
04:30
Overcast
Fog
43°F / 6°C 43°F / 6°C 100% 29.89 in
(1012 mb)
S 6.9 mph
(S 11 kph)
- 1/2SM
04:10
Overcast
Fog And Mist
45°F / 7°C 43°F / 6°C 93% 29.89 in
(1012 mb)
S 3.5 mph
(S 6 kph)
- 3/4SM
03:50
Overcast
Fog
43°F / 6°C 43°F / 6°C 100% 29.89 in
(1012 mb)
S 5.8 mph
(S 9 kph)
- 1/2SM
03:30
Overcast
Fog
45°F / 7°C 43°F / 6°C 93% 29.89 in
(1012 mb)
S 8.1 mph
(S 13 kph)
- 1/4SM
03:10
Overcast
Fog
45°F / 7°C 43°F / 6°C 93% 29.89 in
(1012 mb)
S 6.9 mph
(S 11 kph)
- 1/4SM
02:50
Overcast
Fog
45°F / 7°C 43°F / 6°C 93% 29.92 in
(1013 mb)
S 5.8 mph
(S 9 kph)
- 1/4SM
02:30
Overcast
Fog
45°F / 7°C 43°F / 6°C 93% 29.92 in
(1013 mb)
S 5.8 mph
(S 9 kph)
- 1/4SM
02:10
Overcast
Fog
45°F / 7°C 43°F / 6°C 93% 29.92 in
(1013 mb)
S 6.9 mph
(S 11 kph)
- 1/4SM
01:50
Overcast
Fog
45°F / 7°C 45°F / 7°C 100% 29.92 in
(1013 mb)
S 8.1 mph
(S 13 kph)
- 1/4SM
01:30
Overcast
Fog
45°F / 7°C 43°F / 6°C 93% 29.89 in
(1012 mb)
S 6.9 mph
(S 11 kph)
- 1/4SM
01:10
Overcast
Fog
45°F / 7°C 43°F / 6°C 93% 29.92 in
(1013 mb)
S 4.6 mph
(S 7 kph)
- 1/4SM
00:50
Overcast
Fog
45°F / 7°C 43°F / 6°C 93% 29.92 in
(1013 mb)
S 4.6 mph
(S 7 kph)
- 1/4SM
00:30
Overcast
Fog
45°F / 7°C 45°F / 7°C 100% 29.92 in
(1013 mb)
Calm - 1/2SM
00:10
Overcast
Fog
45°F / 7°C 43°F / 6°C 93% 29.92 in
(1013 mb)
S 5.8 mph
(S 9 kph)
- 1/4SM
Time Weather Temperature Dewpoint Humidity Pressure Winds Precip Visibility


Weather for websites

WeatherForYou.com, LLC is not responsible for any damages or problems caused by this service. Current weather conditions are obtained from the closest station including government and personal stations which may have varying degrees of accuracy. Weather forecasts are derived from the NOAA NDFD. Like all things, this site belongs to Jesus Christ... He just trusts me to maintain it. If you have any questions or comments email webmaster@weatherforyou.com

Copyright © 2014, WeatherForYou.com LLC. All rights reserved.